Newark Heath, OH

9:16 AM EST on November 24, 2017 (GMT -0500)
Newark Heath

Weather History for KVTA - April, 2013

Change the Weather History Date:

Friday, April 12, 2013

  Actual Average Record
Temperature  
Mean Temperature 52 °F -  
Max Temperature 62 °F 63 °F 82 °F (1977)
Min Temperature 42 °F 37 °F 21 °F (1940)
Degree Days  
Heating Degree Days 14    
Growing Degree Days 2 (Base 50)    
Moisture  
Dew Point 47 °F    
Average Humidity 82    
Maximum Humidity 97    
Minimum Humidity 63    
Precipitation  
Precipitation 0.44 in - - ()
Sea Level Pressure  
Sea Level Pressure 29.63 in    
Wind  
Wind Speed 10 mph (WSW)    
Max Wind Speed 21 mph    
Max Gust Speed 31 mph    
Visibility 8 miles    
Events Rain    
Averages and records for this station are not official NWS values.
T = Trace of Precipitation, MM = Missing Value Source: NWS Daily Summary

Daily Weather History Graph

Daily Weather History Graph

Search for Another Location

Airport or City:

Trip Planner

Search our weather history database for the weather conditions in past years. The results will help you decide how hot, cold, wet, or windy it might be!

Date:

Astronomy

Apr. 12, 2013 Rise Set
Actual Time 6:56 AM EDT 8:05 PM EDT
Civil Twilight 6:28 AM EDT 8:33 PM EDT
Nautical Twilight 5:55 AM EDT 9:06 PM EDT
Astronomical Twilight 5:20 AM EDT 9:41 PM EDT
Moon 8:05 AM EDT (4/12) 10:35 PM EDT (4/12)
Length of Visible Light 14h 05m
Length of Day
13h 09m
Waxing Crescent, 5% of the Moon is Illuminated
Apr 12
Waxing Crescent
Apr 18
First Quarter
Apr 25
Full
May 2
Last Quarter
May 9
New

Hourly Weather History & Observations

Time (EDT) Temp. Windchill Dew Point Humidity Pressure Visibility Wind Dir Wind Speed Gust Speed Precip Events Conditions
12:54 AM 57.9 °F - 57.0 °F 97% 29.51 in 1.8 mi East 3.5 mph - 0.01 in Rain Light Rain
1:12 AM 59.0 °F - 57.2 °F 94% 29.52 in 2.5 mi ESE 5.8 mph - 0.00 in Rain Light Rain
1:22 AM 59.0 °F - 57.2 °F 94% 29.52 in 3.0 mi SE 3.5 mph - 0.00 in   Overcast
1:54 AM 61.0 °F - 57.9 °F 90% 29.51 in 9.0 mi SSW 9.2 mph - 0.00 in   Overcast
2:54 AM 61.0 °F - 57.9 °F 90% 29.49 in 10.0 mi South 8.1 mph - N/A   Overcast
3:48 AM 60.8 °F - 57.2 °F 88% 29.49 in 5.0 mi South 9.2 mph - 0.01 in Rain Light Rain
3:49 AM 60.1 °F - 57.9 °F 93% 29.48 in 4.0 mi South 9.2 mph - 0.01 in Rain Light Rain
4:01 AM 60.8 °F - 57.2 °F 88% 29.49 in 2.5 mi SSW 9.2 mph - 0.06 in Rain Rain
4:09 AM 60.8 °F - 57.2 °F 88% 29.49 in 3.0 mi South 10.4 mph - 0.10 in Rain Rain
4:47 AM 60.8 °F - 57.2 °F 88% 29.48 in 8.0 mi SSW 9.2 mph - 0.20 in Rain Light Rain
4:54 AM 60.1 °F - 57.0 °F 90% 29.47 in 8.0 mi SSW 12.7 mph - 0.21 in Rain Light Rain
5:23 AM 59.0 °F - 57.2 °F 94% 29.48 in 6.0 mi SSW 9.2 mph - 0.07 in Rain Rain
5:32 AM 59.0 °F - 57.2 °F 94% 29.48 in 6.0 mi SSW 9.2 mph - 0.08 in Rain Light Rain
5:39 AM 59.0 °F - 57.2 °F 94% 29.48 in 5.0 mi SSW 8.1 mph - 0.09 in Rain Light Rain
5:54 AM 59.0 °F - 57.0 °F 93% 29.47 in 6.0 mi SSW 9.2 mph - 0.12 in Rain Light Rain
6:13 AM 57.2 °F - 53.6 °F 88% 29.51 in 5.0 mi West 20.7 mph 27.6 mph 0.05 in Rain Rain
6:27 AM 55.4 °F - 51.8 °F 88% 29.51 in 9.0 mi WNW 9.2 mph 23.0 mph 0.06 in Rain Light Rain
6:34 AM 55.4 °F - 51.8 °F 88% 29.52 in 10.0 mi WNW 12.7 mph 18.4 mph 0.07 in Rain Light Rain
6:54 AM 54.0 °F - 50.0 °F 86% 29.53 in 10.0 mi WNW 12.7 mph 21.9 mph 0.07 in   Overcast
7:16 AM 53.6 °F - 48.2 °F 82% 29.55 in 10.0 mi WNW 11.5 mph 20.7 mph 0.00 in   Overcast
7:54 AM 51.1 °F - 46.9 °F 86% 29.58 in 10.0 mi West 16.1 mph 21.9 mph 0.00 in Rain Light Rain
8:54 AM 48.9 °F - 46.0 °F 90% 29.63 in 4.0 mi West 10.4 mph - 0.02 in   Overcast
9:02 AM 48.2 °F - 46.4 °F 93% 29.64 in 5.0 mi West 11.5 mph - N/A   Overcast
9:22 AM 48.2 °F - 44.6 °F 87% 29.65 in 10.0 mi West 13.8 mph - N/A   Overcast
9:29 AM 48.2 °F - 44.6 °F 87% 29.66 in 9.0 mi West 15.0 mph 19.6 mph N/A   Overcast
9:54 AM 48.0 °F - 44.1 °F 86% 29.67 in 4.0 mi WSW 16.1 mph 21.9 mph 0.00 in Rain Light Rain
10:13 AM 46.4 °F 40.4 °F 44.6 °F 93% 29.67 in 6.0 mi WSW 13.8 mph - 0.00 in   Overcast
10:54 AM 46.9 °F - 42.1 °F 83% 29.69 in 10.0 mi WSW 15.0 mph - 0.00 in   Overcast
11:54 AM 46.9 °F - 37.9 °F 71% 29.72 in 10.0 mi WSW 19.6 mph 31.1 mph 0.00 in   Overcast
12:54 PM 45.0 °F 36.9 °F 37.0 °F 74% 29.74 in 10.0 mi WSW 20.7 mph 28.8 mph N/A   Overcast
1:54 PM 44.1 °F 36.2 °F 35.1 °F 71% 29.75 in 10.0 mi WSW 18.4 mph 26.5 mph N/A   Overcast
2:54 PM 44.1 °F 35.7 °F 35.1 °F 71% 29.76 in 10.0 mi WSW 20.7 mph 24.2 mph N/A   Overcast
3:32 PM 44.6 °F 37.2 °F 35.6 °F 71% 29.77 in 10.0 mi WSW 17.3 mph 21.9 mph N/A   Overcast
3:54 PM 46.0 °F 39.9 °F 34.0 °F 63% 29.78 in 10.0 mi SW 13.8 mph 20.7 mph N/A   Overcast
4:54 PM 46.0 °F 41.4 °F 34.0 °F 63% 29.78 in 10.0 mi WSW 9.2 mph 17.3 mph N/A   Overcast
5:54 PM 46.9 °F - 35.1 °F 63% 29.80 in 10.0 mi WSW 8.1 mph - N/A   Overcast
6:54 PM 46.9 °F - 36.0 °F 66% 29.83 in 10.0 mi WSW 6.9 mph - N/A   Overcast
7:54 PM 46.9 °F - 35.1 °F 63% 29.83 in 10.0 mi WSW 9.2 mph - N/A   Overcast
8:54 PM 46.0 °F 41.9 °F 35.1 °F 66% 29.86 in 10.0 mi West 8.1 mph - N/A   Overcast
9:54 PM 45.0 °F 40.1 °F 33.1 °F 63% 29.88 in 10.0 mi West 9.2 mph - N/A   Mostly Cloudy
10:54 PM 42.1 °F 38.4 °F 33.1 °F 70% 29.90 in 10.0 mi West 5.8 mph - N/A   Scattered Clouds
11:54 PM 44.1 °F 38.6 °F 32.0 °F 63% 29.90 in 10.0 mi WSW 10.4 mph - N/A   Overcast